Skip Page Navigation
NASA JPL Caltech
NASA Logo - Jet Propulsion Laboratory + View the NASA Portal
+ Near-Earth Object (NEO) Program
Search JPL
JPL Home Earth Solar System Stars & Galaxies Technology
JPL Solar System Dynamics
BODIES ORBITS EPHEMERIDES TOOLS PHYSICAL DATA DISCOVERY FAQ SITE MAP
JPL Small-Body Database Browser
Search: [ help ]  
10430 Martschmidt (4030 P-L)
Classification: Main-belt Asteroid          SPK-ID: 2010430
Ephemeris | Orbit Diagram | Orbital Elements | Physical Parameters | Discovery Circumstances ]

[ show orbit diagram ]
Orbital Elements at Epoch 2456400.5 (2013-Apr-18.0) TDB
Reference: JPL 1 (heliocentric ecliptic J2000)
 Element Value Uncertainty (1-sigma)   Units 
e .09438063424973991 6.9381e-08  
a 2.741467420069068 1.4362e-08 AU
q 2.482725986187951 1.9076e-07 AU
i 2.741119810770523 6.541e-06 deg
node 292.3903153227538 0.00013985 deg
peri 68.77092091936498 0.00014408 deg
M 212.4838165960827 3.4778e-05 deg
tp 2457079.876041609112
(2015-Feb-26.37604161)
0.00016233 JED
period 1657.956227823513
4.54
1.3029e-05
3.567e-08
d
yr
n .2171348036567836 1.7063e-09 deg/d
Q 3.000208853950185 1.5718e-08 AU
  Orbit Determination Parameters
   # obs. used (total)      1074  
   data-arc span      19203 days (52.57 yr)  
   first obs. used      1960-09-24  
   last obs. used      2013-04-22  
   planetary ephem.      DE405  
   SB-pert. ephem.      SB405-CPV-2  
   condition code      0  
   fit RMS      .57674  
   data source      ORB  
   producer      Otto Matic  
   solution date      2013-Apr-29 13:39:56  

Additional Information
 Earth MOID = 1.48057 AU 
 T_jup = 3.342 
[ show covariance matrix ]

Ephemeris | Orbit Diagram | Orbital Elements | Physical Parameters | Discovery Circumstances ]

Physical Parameter Table
Parameter Symbol Value Units Sigma Reference Notes
absolute magnitude H 13.7 mag n/a PDS3 (MPC 34167)  

10430 Martschmidt           Discovered 1960 Sept. 24 by C. J. van Houten and I. van Houten-Groeneveld on Palomar Schmidt plates taken by T. Gehrels.
Maarten Schmidt (b. 1929) is a famous Dutch-American astronomer. His identification of the wavelengths of the radiation emitted by quasars led to the theory that they may be among the most distant and the oldest objects ever observed. The name was suggested by W. A. Fröger and H. Habing.
NOTE: some special characters may not display properly (any characters within {} are an attempt to place the proper accent above a character)
Reference: 20010705/MPCPages.arcLast Updated: 2009-05-11

Alternate Designations
 4030 P-L = 1978 RH4 = 1996 PT2 
Ephemeris | Orbit Diagram | Orbital Elements | Physical Parameters | Discovery Circumstances ]
ABOUT SSD CREDITS/AWARDS PRIVACY/COPYRIGHT GLOSSARY LINKS
FirstGov 2013-May-23 04:27 UT
(server date/time)  
NASA Home Page
Site Manager:   Donald K. Yeomans
Webmaster  Alan B. Chamberlin